This demonstration page uses our WeatherBlox Daily Observations layout. Learn more.

Left ArrowRight Arrow

39.29038, -76.61219

Hourly Observations for July 14, 2020

Temp ( °F °C ) Dew Point ( °F °C ) Humidity (%) Winds ( mph kmh ) Pressure ( in mb ) Visibility ( mi km ) Precip ( " mm )
12:54 am 00:54 Partly Cloudy 76 24.4 66 18.9 72 72 SW 5 7 29.91 1013 10 16 0.00 0.00
1:54 am 01:54 Partly Cloudy 74 23.3 65 18.3 74 74 W 3 6 29.91 1013 10 16 0.00 0.00
2:54 am 02:54 Mostly Cloudy 72 22.2 65 18.3 79 79 Calm 29.91 1013 10 16 0.00 0.00
3:54 am 03:54 Partly Cloudy 71 21.7 65 18.3 81 81 Calm 29.92 1013 10 16 0.00 0.00
4:54 am 04:54 Partly Cloudy 69 20.6 65 18.3 87 87 Calm 29.93 1014 10 16 0.00 0.00
5:54 am 05:54 Partly Cloudy 69 20.6 64 17.8 84 84 Calm 29.95 1014 10 16 0.00 0.00
6:54 am 06:54 Partly Cloudy 71 21.7 62 16.7 73 73 NW 5 7 29.96 1015 10 16 0.00 0.00
7:54 am 07:54 Mostly Sunny 76 24.4 62 16.7 62 62 NNW 6 9 29.98 1015 10 16 0.00 0.00
8:54 am 08:54 Mostly Sunny 80 26.7 60 15.6 51 51 VRB 5 7 29.99 1016 10 16 0.00 0.00
9:54 am 09:54 Mostly Sunny 82 27.8 60 15.6 47 47 NW 6 9 29.99 1016 10 16 0.00 0.00
10:54 am 10:54 Mostly Sunny 84 28.9 58 14.4 41 41 NNW 9 15 29.99 1016 10 16 0.00 0.00
11:54 am 11:54 Mostly Sunny 85 29.4 60 15.6 43 43 NW 8 13 29.99 1016 10 16 0.00 0.00
12:54 pm 12:54 Partly Cloudy 86 30 58 14.4 39 39 VRB 5 7 29.99 1016 10 16 0.00 0.00
1:54 pm 13:54 Partly Cloudy 88 31.1 59 15 38 38 NNW 7 11 29.99 1016 10 16 0.00 0.00
2:54 pm 14:54 Partly Cloudy 88 31.1 58 14.4 36 36 WSW 6 9 29.98 1015 10 16 0.00 0.00
3:54 pm 15:54 Partly Cloudy 90 32.2 56 13.3 32 32 NW 8 13 29.97 1015 10 16 0.00 0.00
4:54 pm 16:54 Partly Cloudy 90 32 57 14 33 33 undefined 6 9 29.97 1015 10 16 0.00 0.00
5:54 pm 17:54 Mostly Cloudy 86 30 61 16.1 43 43 SSE 8 13 29.99 1016 10 16 0.00 0.00
6:54 pm 18:54 Mostly Cloudy 85 29.4 62 16.7 46 46 SSE 6 9 30.00 1016 10 16 0.00 0.00
7:54 pm 19:54 Partly Cloudy 83 28.3 62 16.7 49 49 SSE 5 7 30.02 1017 10 16 0.00 0.00
8:54 pm 20:54 Partly Cloudy 81 27.2 62 16.7 53 53 Calm 30.04 1017 10 16 0.00 0.00
9:54 pm 21:54 Partly Cloudy 80 26.7 63 17.2 56 56 S 3 6 30.05 1018 10 16 0.00 0.00
10:54 pm 22:54 Mostly Clear 77 25 62 16.7 60 60 SSW 3 6 30.06 1018 10 16 0.00 0.00
11:54 pm 23:54 Mostly Clear 75 23.9 64 17.8 69 69 Calm 30.06 1018 10 16 0.00 0.00

Powered by AerisWeather